RH
65 61 72 95 94 94 92 91 91 89 86 83 80 78 75 73 74 74 74 72 73 74 74 77 78 82 84 87 89 80 32 25
67 64 60 62 62 95 94 92 91 90 85 83 83 80 75 77 72 76 77 78 78 78 81 84 84 87 86 86 86 82 28 25
57 56 57 61 56 73 87 90 88 87 78 82 76 40 43 44 76 80 82 86 86 86 86 87 87 85 78 77 79 25 28 24
68 68 70 65 52 55 53 47 40 42 44 51 39 53 53 56 68 85 84 84 84 77 74 78 71 31 29 50 26 32 26 27
72 80 74 58 52 44 37 36 42 46 56 55 52 55 54 46 41 38 42 58 35 37 35 31 41 38 32 35 31 27 23 22
65 52 57 59 40 38 43 41 46 47 52 57 62 60 72 52 38 39 44 36 38 34 31 40 38 35 37 35 33 28 23 22
53 53 55 53 50 48 48 48 48 53 51 60 60 68 78 56 46 37 36 32 32 33 30 29 29 28 31 32 30 31 30 25
53 48 50 50 53 57 52 52 58 71 66 74 74 81 93 73 41 33 32 31 29 27 28 26 25 27 26 30 30 28 27 32
50 55 55 56 53 51 58 54 61 53 56 72 77 76 78 59 42 37 32 32 32 31 29 28 26 24 27 26 27 28 27 35
48 50 54 59 70 79 83 65 59 49 52 56 52 52 59 50 38 42 40 35 32 32 31 28 28 29 29 25 26 24 27 36
51 54 62 78 79 70 52 57 47 43 40 38 49 46 46 45 41 40 38 33 36 33 31 34 30 30 26 24 25 26 27 23
54 48 53 56 46 48 37 34 34 32 31 31 35 33 38 36 37 41 34 30 30 32 38 33 35 36 29 26 29 26 26 29
51 54 53 45 41 40 36 36 36 33 30 37 37 35 34 37 31 34 36 35 42 42 37 37 34 37 35 26 23 23 29 30
49 48 46 39 35 35 37 37 34 31 33 37 34 35 31 31 39 36 38 36 41 46 45 38 30 36 45 36 29 22 19 27
48 42 36 37 39 34 34 36 34 31 30 28 34 37 33 33 38 39 42 39 38 44 44 45 40 35 39 41 39 33 31 25
39 35 36 36 33 36 41 33 32 35 33 32 34 39 40 35 36 41 44 40 42 43 38 44 41 35 32 26 35 37 39 37
39 35 34 35 36 37 34 37 34 33 34 38 36 35 36 34 35 40 43 38 43 49 48 42 37 39 36 35 36 31 31 32
40 36 35 36 37 40 44 43 35 29 26 24 20 20 20 24 24 40 46 46 51 47 45 45 43 39 34 33 32 34 32 32
38 35 36 37 38 35 31 27 25 23 23 21 25 22 23 27 33 38 42 49 47 46 49 51 43 38 37 33 31 31 30 32
37 35 35 31 27 23 23 23 22 21 27 28 27 28 31 39 46 47 50 48 48 57 51 44 42 38 39 38 34 32 30 32
Wind_Speed
12 12 11 9 8 9 9 9 8 8 7 5 6 6 5 6 5 4 4 4 5 5 5 6 7 8 8 8 8 7 9 6
10 11 10 9 10 10 10 8 6 5 5 5 4 4 3 4 3 5 5 5 6 6 7 8 9 9 7 10 11 12 10 8
7 8 7 7 7 8 10 8 5 4 5 3 5 2 1 3 6 4 5 6 7 8 9 9 8 11 1 6 13 7 9 7
6 5 6 7 5 6 5 5 2 2 3 1 0 4 5 6 4 3 5 5 6 3 4 7 8 7 5 5 6 8 6 6
7 7 6 6 5 4 4 3 3 3 3 3 4 4 4 4 3 2 2 1 3 3 3 6 7 6 6 6 7 7 5 5
9 8 7 6 5 5 5 4 3 3 4 3 4 4 6 5 4 3 3 3 4 4 3 5 6 6 5 5 6 6 5 5
10 8 8 6 6 6 4 3 3 2 1 4 4 4 6 9 5 4 3 2 3 4 4 5 6 5 6 6 6 6 7 5
11 11 10 10 9 8 6 5 5 4 2 2 2 3 4 8 7 5 3 3 3 5 6 6 6 6 6 6 7 7 7 7
13 12 12 10 9 8 6 4 2 0 2 4 4 4 5 6 6 5 3 3 4 3 4 4 6 6 7 8 8 7 7 7
14 12 11 9 8 4 4 3 3 2 5 4 2 1 2 6 2 3 4 4 4 4 5 6 5 7 7 8 8 8 7 7
15 13 9 5 4 6 6 6 4 3 5 4 3 4 3 1 2 3 4 4 4 5 5 6 6 7 8 9 9 10 11 10
13 10 9 5 3 6 5 5 5 4 5 5 5 4 4 2 3 4 4 4 4 6 6 7 7 7 10 10 10 10 11 10
15 11 7 4 4 5 5 3 4 4 5 6 5 5 5 4 3 3 5 5 7 7 8 10 8 7 11 9 10 12 5 8
11 10 8 6 5 4 3 1 4 5 4 4 4 4 4 4 6 7 7 8 9 7 7 7 7 4 9 11 10 10 9 7
10 10 9 6 4 4 5 5 4 2 2 3 5 6 8 8 7 7 8 8 8 6 5 6 7 6 6 7 9 11 12 11
12 11 8 6 3 7 7 6 5 4 3 4 6 6 8 9 10 9 8 7 7 5 4 5 5 7 7 8 8 10 11 12
10 11 10 9 9 8 6 6 4 4 5 7 8 8 10 11 11 11 10 7 5 5 4 4 6 6 9 8 9 8 9 10
10 11 11 10 11 11 9 8 7 6 8 8 8 9 10 12 13 11 10 7 5 3 2 5 8 7 6 6 7 8 8 9
11 12 12 10 10 10 9 8 7 7 8 7 10 9 9 11 13 11 7 4 2 2 3 5 7 6 6 7 7 7 8 8
12 12 11 10 10 10 8 7 5 5 7 7 7 8 9 12 11 7 2 3 2 4 8 5 5 6 8 8 8 8 9 8
Wind_Direction
149 154 136 111 109 101 94 87 82 84 87 84 88 90 94 84 76 65 62 46 26 9 4 353 2 6 360 356 349 319 326 9
147 155 150 149 135 102 88 82 85 88 92 92 94 126 120 118 185 64 19 9 357 346 340 343 348 339 345 349 320 279 355 330
135 129 137 122 113 99 125 119 111 153 161 121 205 95 103 198 63 5 347 346 338 343 342 335 320 266 221 336 289 359 333 351
118 119 112 94 99 110 113 111 94 51 80 63 122 18 6 321 299 321 303 332 288 318 318 273 260 349 351 259 355 344 331 333
110 107 110 155 122 131 116 119 112 111 83 7 42 349 353 306 298 248 284 96 318 320 1 22 6 341 346 340 342 326 348 338
151 141 127 116 133 114 123 113 115 102 65 24 32 15 356 327 318 315 270 352 335 340 14 15 356 352 351 344 346 336 345 324
116 121 120 119 119 115 106 89 65 39 167 114 120 75 17 332 315 289 306 299 328 327 345 354 344 329 329 326 330 327 329 326
128 124 119 109 89 79 77 57 42 5 17 179 165 93 98 269 264 263 271 301 331 328 352 343 332 324 320 322 314 317 322 318
131 121 110 99 88 73 52 31 20 243 170 180 190 174 170 249 266 269 303 0 344 335 329 321 317 313 308 302 300 305 314 306
140 135 127 116 102 104 102 120 105 99 97 70 91 121 201 239 296 11 10 3 342 342 341 322 321 317 315 304 304 304 306 283
146 144 141 139 136 96 112 110 127 126 85 93 78 67 62 21 44 38 355 355 351 335 326 328 315 302 303 304 300 298 298 296
155 163 166 145 93 138 130 124 85 77 79 71 61 73 46 7 60 22 335 324 321 338 324 322 301 308 305 297 296 300 307 298
173 166 161 180 155 140 150 144 107 99 84 56 53 45 51 19 7 350 326 320 327 308 308 306 307 335 302 316 298 289 282 288
168 167 168 158 147 109 20 115 88 92 94 82 65 51 26 341 338 329 330 313 309 301 313 314 307 352 321 311 313 305 293 354
164 148 134 95 65 138 130 129 138 155 63 38 48 6 347 335 324 319 317 307 306 307 302 314 318 313 344 322 322 322 322 302
135 130 114 89 109 87 65 48 48 38 10 13 335 337 326 322 316 306 305 303 296 283 295 314 313 319 317 320 306 306 304 302
127 121 111 106 96 90 89 73 61 31 1 335 321 316 312 308 303 296 292 286 274 281 273 317 313 325 324 318 312 302 297 298
134 127 117 106 97 86 81 67 42 16 1 339 337 326 321 316 314 303 292 278 240 229 267 326 325 321 314 312 306 310 307 308
135 125 117 106 95 89 80 71 46 19 359 348 333 330 326 322 319 298 276 250 229 259 332 287 290 303 312 312 306 301 303 301
135 130 124 114 103 95 80 55 44 21 5 347 331 327 324 323 313 299 227 214 131 330 270 272 301 292 302 303 295 296 302 300